[[{"header":{"parameterUnit":"m.s-1","parameterCategory":1,"la1":30.2991,"la2":30.254,"lo1":-89.0895,"lo2":-89.0444,"dy":0.0017,"dx":0.0017,"nx":28,"ny":28,"refTime":"2024-08-12T21:00:00:Z","depth":0,"parameterNumber":2,"parameterNumberName":"U-component_of_WINDS"},"data":[0,0,0,0,0,0,0,0,0,0,0,0,0,0,0,0,0,0,0,0,0,0,0,0,0,0,0,0,0,0,0,0,0,0,0,0,0,0,0,0,0,0,0,0,0,0,0,0,0,0,0,0,0,0,0,0,0,0,2.4756,2.4757,0,2.4852,2.4853,2.4854,2.4816,2.4814,2.4812,2.481,2.4911,2.4915,2.492,0,0,0,0,0,0,0,0,0,0,0,0,0,2.4541,2.4545,2.4756,2.4757,2.4758,2.4852,2.4853,2.4854,2.4817,2.4814,2.4811,2.4809,2.4909,2.4915,2.492,0,0,0,0,0,0,0,0,0,0,0,0,0,2.4635,2.4546,2.4756,2.4751,2.4751,2.4851,2.4853,2.4855,2.4817,2.4814,2.481,2.4807,2.4907,2.4914,2.4921,2.5033,0,0,2.4943,2.4946,0,0,0,0,0,0,0,0,2.463,2.4643,2.475,2.4751,2.4752,2.4819,2.4814,2.4915,2.4818,2.4792,2.481,2.4806,2.4883,2.4892,2.4917,2.5038,2.5042,2.4944,2.4948,2.4951,2.4953,0,0,0,0,0,0,0,2.4623,2.4639,2.4794,2.4752,2.4753,2.4744,2.4753,2.4833,2.4855,2.4794,2.4792,2.4803,2.4883,2.4911,2.4919,2.5044,2.4944,2.495,2.4954,2.4957,2.5257,2.5261,0,0,0,0,0,0,2.4616,2.4634,2.4791,2.4797,2.4681,2.475,2.4761,2.4801,2.4854,2.4859,2.4806,2.4801,2.49,2.4911,2.4923,2.5055,2.4951,2.4958,2.4962,2.5254,2.5258,2.5262,0,0,0,0,0,0,2.4612,2.4631,2.4787,2.4715,2.4734,2.4758,2.4802,2.4804,2.4832,2.4863,2.4867,2.483,2.4898,2.4913,2.5005,2.5058,2.4961,2.4968,2.5249,2.5255,2.526,2.5321,0,0,0,0,0,0,2.4606,2.4629,2.4672,2.4716,2.4738,2.4868,2.4806,2.4809,2.4844,2.4839,2.4887,2.4892,2.4896,2.4994,2.5012,2.5066,2.4973,2.5245,2.5252,2.5258,2.5315,2.5328,2.534,0,0,0,0,0,2.4598,2.4687,2.4675,2.4694,2.4792,2.4871,2.4883,2.4886,2.4849,2.4891,2.4911,2.489,2.5049,2.5004,2.5024,2.5081,2.5241,2.525,2.5258,2.5309,2.5326,2.534,0,0,0,0,0,0,2.4651,2.4693,2.4679,2.4785,2.4824,2.4864,2.4919,2.4904,2.4955,2.4948,2.4949,2.4961,2.5055,2.5077,2.5026,2.519,2.514,2.5152,2.5172,2.5188,2.52,2.5193,2.4979,0,0,0,0,0,2.4674,2.4735,2.4768,2.4858,2.4878,2.4895,2.493,2.4928,2.4969,2.4986,2.5013,2.5054,2.5113,2.5152,2.5208,2.5318,2.5327,2.5366,2.5379,2.5389,2.54,2.5457,2.5474,2.5289,2.5289,2.5289,0,0,2.4724,2.4754,2.4793,2.4869,2.4899,2.4961,2.491,2.4978,2.5024,2.4997,2.5084,2.5105,2.5152,2.5252,2.5298,2.5274,2.5453,2.54,2.5408,2.5413,2.5467,2.5484,2.55,2.5295,2.5294,2.5293,0,0,2.4846,2.4876,2.4952,2.4983,2.5029,2.5039,2.5057,2.5099,2.5111,2.5199,2.5179,2.5234,2.5336,2.5369,2.5399,2.553,2.5512,2.5549,2.5614,2.567,2.5684,2.5697,2.5742,2.5758,2.556,2.556,2.556,0,2.4902,2.4995,2.4994,2.5063,2.5096,2.5073,2.5149,2.518,2.5242,2.5266,2.5238,2.5363,2.5393,2.5499,2.5531,2.5557,2.5577,2.5543,2.5682,2.5695,2.5707,2.575,2.5767,2.5564,2.5563,2.5563,2.5562,0,2.506,2.5124,2.5181,2.5239,2.5279,2.5352,2.5362,2.5402,2.5396,2.5409,2.5498,2.5532,2.5594,2.5619,2.5615,2.5725,2.5708,2.5681,2.563,2.5729,2.5769,2.5785,2.5569,2.5568,2.5567,2.5566,0,0,2.5219,2.5274,2.5295,2.532,2.5367,2.5417,2.5488,2.5546,2.558,2.5624,2.5682,2.5768,2.5743,2.5777,2.5776,2.5825,2.5924,2.5792,2.5793,2.5814,2.6044,2.6062,2.6081,2.5912,2.5915,2.5918,2.6039,0,2.5343,2.5466,2.5467,2.558,2.5638,2.5616,2.5677,2.5713,2.5727,2.5778,2.5793,2.5853,2.5816,2.5836,2.5883,2.5902,2.597,2.5893,2.5966,2.5969,2.5954,2.6103,2.6123,2.6236,2.6055,2.6058,2.606,0,2.5504,2.555,2.5669,2.5706,2.573,2.5786,2.5837,2.5887,2.5927,2.5933,2.597,2.5961,2.6032,2.598,2.6077,2.6025,2.6055,2.6068,2.6073,2.6079,2.6019,2.6111,2.6273,2.6289,2.6085,2.6083,2.6081,0,2.5605,2.5698,2.578,2.5802,2.5848,2.5886,2.5907,2.5943,2.5977,2.6023,2.6045,2.61,2.6129,2.6171,2.6177,2.6138,2.6274,2.6223,2.6281,2.6281,2.631,2.6308,2.6477,2.6332,2.6332,2.6331,2.6331,0,2.5743,2.5816,2.5825,2.5876,2.5956,2.5956,2.6036,2.6054,2.6085,2.6138,2.6123,2.6173,2.6178,2.623,2.6235,2.6314,2.6328,2.6334,2.6335,2.6335,2.6334,2.6354,2.6346,2.6336,2.6335,2.6334,2.6333,0,2.5869,2.5879,2.5966,2.6001,2.6011,2.6069,2.6098,2.6146,2.6157,2.6225,2.6241,2.6258,2.6318,2.6328,2.6399,2.6402,2.6496,2.6489,2.6482,2.6481,2.6537,2.6531,2.6724,2.6748,2.6589,2.659,2.6592,0,2.5956,2.6011,2.6051,2.6084,2.6106,2.6161,2.6195,2.6197,2.6233,2.628,2.6322,2.638,2.6426,2.6522,2.6542,2.6595,2.6589,2.6652,2.6597,2.6594,2.6587,2.6583,2.6588,2.6663,2.6664,2.6666,2.6667,0,2.6107,2.6108,2.6157,2.6208,2.6248,2.6288,2.6326,2.6355,2.636,2.6402,2.6461,2.6497,2.6568,2.6625,2.6678,2.6699,2.6684,2.6684,2.67,2.6701,2.6693,2.6696,2.6509,2.668,2.6679,2.6678,2.6677,2.6676,2.6215,2.6262,2.6296,2.6351,2.6379,2.6414,2.6459,2.6475,2.6525,2.6581,2.6579,2.6644,2.668,2.6749,2.6774,2.6825,2.6804,2.6828,2.6834,2.6839,2.6843,2.6686,2.6835,2.6834,2.6834,2.6834,2.6834,0,2.6364,2.6384,2.6434,2.6486,2.6529,2.6509,2.6549,2.6586,2.6643,2.6678,2.6722,2.679,2.6845,2.6868,2.6921,2.6957,2.6951,2.6971,2.6968,2.6972,2.686,2.684,2.6975,2.6975,2.6975,2.6975,2.6975,2.6975,2.6446,2.6524,2.6529,2.6619,2.6639,2.6702,2.6726,2.6757,2.6784,2.686,2.6905,2.6919,2.6948,2.7003,2.7052,2.7057,2.7077,2.7099,2.7101,2.6995,2.6981,2.6967,2.6948,2.7104,2.7104,2.7209,2.721,2.7211]},{"header":{"parameterUnit":"m.s-1","parameterCategory":1,"la1":30.2991,"la2":30.254,"lo1":-89.0895,"lo2":-89.0444,"dy":0.0017,"dx":0.0017,"nx":28,"ny":28,"refTime":"2024-08-12T21:00:00:Z","depth":0,"parameterNumber":3,"parameterNumberName":"V-component_of_WINDS"},"data":[0,0,0,0,0,0,0,0,0,0,0,0,0,0,0,0,0,0,0,0,0,0,0,0,0,0,0,0,0,0,0,0,0,0,0,0,0,0,0,0,0,0,0,0,0,0,0,0,0,0,0,0,0,0,0,0,0,0,4.1915,4.1915,0,4.1891,4.189,4.189,4.1801,4.1799,4.1797,4.1795,4.1771,4.1772,4.1773,0,0,0,0,0,0,0,0,0,0,0,0,0,4.1886,4.1887,4.1916,4.1915,4.1915,4.1891,4.189,4.189,4.1802,4.1799,4.1797,4.1794,4.177,4.1772,4.1773,0,0,0,0,0,0,0,0,0,0,0,0,0,4.1884,4.1888,4.1916,4.1868,4.1863,4.1891,4.189,4.189,4.1802,4.1799,4.1796,4.1793,4.177,4.1772,4.1774,4.1845,0,0,4.1779,4.178,0,0,0,0,0,0,0,0,4.1884,4.1885,4.1875,4.1871,4.1866,4.1846,4.1871,4.1875,4.1803,4.1825,4.1795,4.1792,4.1798,4.1798,4.18,4.1844,4.1843,4.1779,4.178,4.1781,4.1782,0,0,0,0,0,0,0,4.1885,4.1886,4.1906,4.1875,4.187,4.1848,4.1844,4.1871,4.1829,4.1823,4.1817,4.1815,4.1795,4.1798,4.1798,4.1843,4.1779,4.1781,4.1782,4.1783,4.1943,4.1946,0,0,0,0,0,0,4.1892,4.1887,4.1906,4.1905,4.1868,4.1851,4.1847,4.1855,4.1829,4.1822,4.1818,4.1811,4.1796,4.1796,4.1797,4.1877,4.1781,4.1783,4.1784,4.194,4.1944,4.1947,0,0,0,0,0,0,4.1891,4.1894,4.1907,4.1894,4.1894,4.1854,4.1865,4.1857,4.1859,4.1824,4.1816,4.1828,4.1794,4.1795,4.1833,4.1876,4.1784,4.1785,4.1936,4.1941,4.1945,4.204,0,0,0,0,0,0,4.1891,4.1895,4.1922,4.1895,4.1895,4.1944,4.1868,4.1858,4.1862,4.1854,4.1832,4.1826,4.1792,4.1831,4.1835,4.1876,4.1787,4.1932,4.1938,4.1944,4.2033,4.2048,4.206,0,0,0,0,0,4.189,4.195,4.1923,4.1926,4.1928,4.1947,4.1947,4.1906,4.1866,4.1893,4.187,4.1826,4.1871,4.1836,4.184,4.1882,4.1929,4.1937,4.1943,4.2027,4.2045,4.206,0,0,0,0,0,0,4.1983,4.1946,4.1916,4.1969,4.1962,4.1932,4.1964,4.1927,4.1931,4.1922,4.1872,4.1868,4.1914,4.1902,4.1864,4.1949,4.1893,4.1901,4.1955,4.1971,4.1985,4.1986,4.1788,0,0,0,0,0,4.201,4.2028,4.1995,4.2045,4.2043,4.2005,4.2011,4.1981,4.1971,4.1968,4.1948,4.1941,4.1953,4.1962,4.1971,4.2032,4.2025,4.2063,4.2076,4.2087,4.2094,4.2124,4.2139,4.197,4.197,4.197,0,0,4.2065,4.2047,4.2062,4.2063,4.2054,4.2073,4.2002,4.2027,4.2041,4.1972,4.2006,4.1992,4.198,4.203,4.2051,4.2021,4.214,4.2096,4.2106,4.2106,4.2132,4.2149,4.2163,4.1975,4.1974,4.1973,0,0,4.2175,4.2164,4.2203,4.2195,4.2182,4.2156,4.2166,4.2141,4.2129,4.2163,4.2111,4.2127,4.2149,4.2143,4.2142,4.2249,4.2208,4.2254,4.2323,4.2353,4.2366,4.2377,4.2413,4.2427,4.2262,4.2262,4.2262,0,4.2245,4.2273,4.2229,4.2256,4.2257,4.2195,4.2234,4.2229,4.222,4.2222,4.2189,4.2215,4.2203,4.2249,4.2275,4.2278,4.2286,4.2255,4.2367,4.2379,4.2389,4.2423,4.2437,4.2267,4.2267,4.2266,4.2265,0,4.2359,4.2379,4.2412,4.2404,4.2409,4.2443,4.2403,4.2414,4.2383,4.2361,4.2395,4.2379,4.2383,4.2392,4.2363,4.2434,4.2415,4.2376,4.2318,4.2411,4.2442,4.2455,4.2275,4.2273,4.2271,4.227,0,0,4.2526,4.2492,4.2505,4.2499,4.248,4.2494,4.2525,4.2528,4.2537,4.2533,4.2556,4.2576,4.2539,4.2539,4.2508,4.2534,4.2617,4.2491,4.249,4.2513,4.2693,4.2721,4.2737,4.2591,4.2593,4.2595,4.2693,0,4.2629,4.2678,4.2638,4.2694,4.2711,4.2652,4.2678,4.2669,4.2649,4.266,4.2638,4.2652,4.2603,4.2602,4.2625,4.2603,4.2652,4.2595,4.2611,4.2612,4.2613,4.2753,4.2783,4.2876,4.2705,4.2707,4.2708,0,4.2755,4.2755,4.2813,4.2788,4.2793,4.2818,4.2816,4.2829,4.2817,4.28,4.2799,4.2761,4.2789,4.2733,4.2769,4.2731,4.2736,4.2726,4.2728,4.2726,4.2665,4.2753,4.2905,4.2918,4.2727,4.2726,4.2725,0,4.2869,4.2884,4.2919,4.2917,4.2889,4.2907,4.2897,4.2882,4.2886,4.2885,4.2887,4.2891,4.2892,4.2895,4.2859,4.2822,4.2899,4.2841,4.2885,4.2886,4.2902,4.2902,4.3055,4.2909,4.2909,4.2909,4.2909,0,4.2986,4.3023,4.2969,4.2991,4.303,4.2985,4.3025,4.3008,4.2996,4.3013,4.2963,4.298,4.2932,4.2944,4.2916,4.2949,4.2951,4.2938,4.2929,4.2941,4.2942,4.2942,4.2934,4.2912,4.2912,4.2911,4.291,0,4.3119,4.3085,4.3119,4.309,4.3083,4.3113,4.3088,4.3107,4.3083,4.3106,4.3108,4.3072,4.3083,4.3048,4.3054,4.3035,4.3083,4.3065,4.3087,4.308,4.3126,4.3121,4.3283,4.3301,4.3146,4.3147,4.3148,0,4.3195,4.3222,4.3195,4.3203,4.3194,4.3208,4.3211,4.3168,4.3173,4.3161,4.3181,4.3189,4.3192,4.3213,4.3187,4.3191,4.3172,4.3228,4.3172,4.3183,4.317,4.3168,4.317,4.3239,4.3241,4.3243,4.3244,0,4.3334,4.3315,4.3321,4.3322,4.3327,4.3326,4.3321,4.333,4.3283,4.3292,4.3303,4.3306,4.3311,4.3319,4.3318,4.3306,4.3267,4.3262,4.3272,4.3283,4.3294,4.3286,4.3116,4.3258,4.3257,4.3256,4.3255,4.3255,4.3439,4.3459,4.3443,4.3451,4.3443,4.3439,4.3454,4.3433,4.3441,4.3441,4.3416,4.3431,4.3418,4.3412,4.3405,4.3416,4.339,4.3405,4.3409,4.3413,4.3419,4.3294,4.3416,4.3416,4.3415,4.3415,4.3415,0,4.3572,4.3559,4.3567,4.3561,4.3568,4.3531,4.3523,4.3531,4.3545,4.3536,4.354,4.3551,4.3558,4.3533,4.3536,4.355,4.3532,4.3552,4.355,4.3547,4.3443,4.3433,4.3566,4.3566,4.3566,4.3566,4.3566,4.3566,4.3642,4.3674,4.3653,4.368,4.3666,4.368,4.3679,4.3675,4.3667,4.3682,4.3687,4.367,4.3654,4.3655,4.366,4.3652,4.3655,4.3681,4.3667,4.357,4.3555,4.3541,4.3531,4.3682,4.3682,4.3769,4.377,4.3771]}]]